Location: Rooftop Observatory
(39.0308°N, 87.1711°W)
Time: 16:56:34
(UTC-05:00)

Terra - Visible Passes

Search period start: 07 July 2015 00:00
Search period end: 17 July 2015 00:00
Orbit: 701 x 703 km, 98.2° (Epoch: 07 July)

Date Brightness Start Highest point End Pass type
(mag) Time Alt. Az. Time Alt. Az. Time Alt. Az.
07 Jul 3.9 21:25:40 10° E 21:27:42 13° ENE 21:29:59 10° NE visible
07 Jul 1.9 23:04:09 55° SSW 23:04:59 67° W 23:09:44 10° NNW visible
08 Jul 2.8 22:08:33 26° ESE 22:10:07 33° ENE 22:14:24 10° N visible
08 Jul 3.4 23:47:27 24° WSW 23:47:58 24° W 23:51:45 10° NW visible
09 Jul 1.7 22:51:51 59° SSE 22:52:46 90° WSW 22:57:33 10° NNW visible
10 Jul 3.2 21:56:16 20° E 21:58:00 25° ENE 22:01:55 10° NNE visible
10 Jul 3.0 23:35:09 31° WSW 23:35:40 32° W 23:39:53 10° NNW visible
11 Jul 1.8 22:39:34 52° SE 22:40:34 68° ENE 22:45:19 10° N visible
12 Jul 4.3 00:18:27 11° W 00:18:55 11° W 00:20:15 10° WNW visible
12 Jul 3.5 21:43:59 15° E 21:45:53 20° ENE 21:49:20 10° NNE visible
12 Jul 2.5 23:22:52 41° WSW 23:23:23 42° W 23:27:54 10° NNW visible
13 Jul 2.2 22:27:17 41° ESE 22:28:23 50° ENE 22:33:01 10° N visible
14 Jul 4.0 00:06:10 15° W 00:06:31 16° W 00:09:15 10° NW visible
14 Jul 3.8 21:31:42 11° E 21:33:47 15° ENE 21:36:32 10° NNE visible
14 Jul 2.1 23:10:35 54° SW 23:11:08 57° W 23:15:49 10° NNW visible
15 Jul 2.6 22:15:00 32° ESE 22:16:14 38° ENE 22:20:39 10° N visible
15 Jul 3.6 23:53:53 21° W 23:54:10 21° W 23:57:40 10° NW visible
16 Jul 4.0 21:20:22 10° E 21:21:42 11° ENE 21:23:17 10° NE visible
16 Jul 1.7 22:58:18 66° SSW 22:58:54 78° WSW 23:03:40 10° NNW visible
